Time,TemperatureF,DewpointF,PressureIn,WindDirection,WindDirectionDegrees,WindSpeedMPH,WindSpeedGustMPH,Humidity,HourlyPrecipIn,Conditions,Clouds,dailyrainin,SoftwareType,DateUTC
2013-08-14 00:03:00,72.4,56.2,29.87,North,0,0.0,0.0,57,0.00,,,0.00,WUHU216HW,2013-08-14 07:03:00,
2013-08-14 00:08:00,72.4,56.2,29.87,North,0,0.0,0.0,57,0.00,,,0.00,WUHU216HW,2013-08-14 07:08:00,
2013-08-14 00:13:00,72.0,55.9,29.87,North,0,0.0,0.0,57,0.00,,,0.00,WUHU216HW,2013-08-14 07:13:00,
2013-08-14 00:18:00,71.6,56.1,29.87,North,0,0.0,0.0,58,0.00,,,0.00,WUHU216HW,2013-08-14 07:18:00,
2013-08-14 00:23:00,71.3,55.7,29.87,North,0,0.0,0.0,58,0.00,,,0.00,WUHU216HW,2013-08-14 07:23:00,
2013-08-14 00:28:00,70.9,55.9,29.87,North,0,0.0,0.0,59,0.00,,,0.00,WUHU216HW,2013-08-14 07:28:00,
2013-08-14 00:33:00,70.6,55.6,29.87,North,0,0.0,0.0,59,0.00,,,0.00,WUHU216HW,2013-08-14 07:33:00,
2013-08-14 00:38:00,70.6,55.6,29.87,North,0,0.0,0.0,59,0.00,,,0.00,WUHU216HW,2013-08-14 07:38:00,
2013-08-14 00:43:00,70.4,55.5,29.87,North,0,0.0,0.0,59,0.00,,,0.00,WUHU216HW,2013-08-14 07:43:00,
2013-08-14 00:49:00,70.4,55.5,29.87,North,0,0.0,0.0,59,0.00,,,0.00,WUHU216HW,2013-08-14 07:49:00,
2013-08-14 00:54:00,70.2,55.8,29.87,North,0,0.0,0.0,60,0.00,,,0.00,WUHU216HW,2013-08-14 07:54:00,
2013-08-14 00:59:00,70.0,55.6,29.87,North,0,0.0,0.0,60,0.00,,,0.00,WUHU216HW,2013-08-14 07:59:00,
2013-08-14 01:04:00,69.8,54.9,29.87,North,0,0.0,0.0,59,0.00,,,0.00,WUHU216HW,2013-08-14 08:04:00,
2013-08-14 01:09:00,69.7,55.3,29.87,North,0,0.0,0.0,60,0.00,,,0.00,WUHU216HW,2013-08-14 08:09:00,
2013-08-14 01:14:00,69.5,55.1,29.87,North,0,0.0,0.0,60,0.00,,,0.00,WUHU216HW,2013-08-14 08:14:00,
2013-08-14 01:19:00,69.5,55.5,29.87,North,0,0.0,0.0,61,0.00,,,0.00,WUHU216HW,2013-08-14 08:19:00,
2013-08-14 01:24:00,69.3,55.4,29.87,North,0,0.0,0.0,61,0.00,,,0.00,WUHU216HW,2013-08-14 08:24:00,
2013-08-14 01:29:00,69.1,55.2,29.87,North,0,0.0,0.0,61,0.00,,,0.00,WUHU216HW,2013-08-14 08:29:00,
2013-08-14 01:34:00,68.9,55.0,29.86,North,0,0.0,0.0,61,0.00,,,0.00,WUHU216HW,2013-08-14 08:34:00,
2013-08-14 01:39:00,68.8,55.6,29.86,North,0,0.0,0.0,63,0.00,,,0.00,WUHU216HW,2013-08-14 08:39:00,
2013-08-14 01:44:00,68.8,55.2,29.86,North,0,0.0,0.0,62,0.00,,,0.00,WUHU216HW,2013-08-14 08:44:00,
2013-08-14 01:49:00,68.4,54.9,29.87,North,0,0.0,0.0,62,0.00,,,0.00,WUHU216HW,2013-08-14 08:49:00,
2013-08-14 01:54:00,68.2,55.1,29.87,North,0,0.0,0.0,63,0.00,,,0.00,WUHU216HW,2013-08-14 08:54:00,
2013-08-14 01:59:00,67.9,54.8,29.86,North,0,0.0,0.0,63,0.00,,,0.00,WUHU216HW,2013-08-14 08:59:00,
2013-08-14 02:04:00,67.7,54.6,29.86,North,0,0.0,0.0,63,0.00,,,0.00,WUHU216HW,2013-08-14 09:04:00,
2013-08-14 02:09:00,67.3,54.7,29.86,North,0,0.0,0.0,64,0.00,,,0.00,WUHU216HW,2013-08-14 09:09:00,
2013-08-14 02:14:00,67.3,54.7,29.86,North,0,0.0,0.0,64,0.00,,,0.00,WUHU216HW,2013-08-14 09:14:00,
2013-08-14 02:19:00,67.1,54.6,29.86,North,0,0.0,0.0,64,0.00,,,0.00,WUHU216HW,2013-08-14 09:19:00,
2013-08-14 02:24:00,67.0,54.8,29.86,North,0,0.0,0.0,65,0.00,,,0.00,WUHU216HW,2013-08-14 09:24:00,
2013-08-14 02:29:00,67.0,54.8,29.86,North,0,0.0,0.0,65,0.00,,,0.00,WUHU216HW,2013-08-14 09:29:00,
2013-08-14 02:34:00,66.8,54.6,29.86,North,0,0.0,0.0,65,0.00,,,0.00,WUHU216HW,2013-08-14 09:34:00,
2013-08-14 02:39:00,66.6,54.5,29.86,North,0,0.0,0.0,65,0.00,,,0.00,WUHU216HW,2013-08-14 09:39:00,
2013-08-14 02:44:00,66.4,54.3,29.86,North,0,0.0,0.0,65,0.00,,,0.00,WUHU216HW,2013-08-14 09:44:00,
2013-08-14 02:49:00,66.4,54.3,29.86,North,0,0.0,0.0,65,0.00,,,0.00,WUHU216HW,2013-08-14 09:49:00,
2013-08-14 02:54:00,66.2,54.1,29.86,North,0,0.0,0.0,65,0.00,,,0.00,WUHU216HW,2013-08-14 09:54:00,
2013-08-14 02:59:00,66.1,54.4,29.86,North,0,0.0,0.0,66,0.00,,,0.00,WUHU216HW,2013-08-14 09:59:00,
2013-08-14 03:04:00,66.1,54.7,29.86,North,0,0.0,0.0,67,0.00,,,0.00,WUHU216HW,2013-08-14 10:04:00,
2013-08-14 03:09:00,65.9,54.5,29.86,North,0,0.0,0.0,67,0.00,,,0.00,WUHU216HW,2013-08-14 10:09:00,
2013-08-14 03:14:00,65.5,54.3,29.86,North,0,0.0,0.0,67,0.00,,,0.00,WUHU216HW,2013-08-14 10:14:00,
2013-08-14 03:19:00,65.3,54.6,29.86,North,0,0.0,0.0,68,0.00,,,0.00,WUHU216HW,2013-08-14 10:19:00,
2013-08-14 03:24:00,65.3,54.1,29.85,North,0,0.0,0.0,67,0.00,,,0.00,WUHU216HW,2013-08-14 10:24:00,
2013-08-14 03:29:00,65.2,54.4,29.85,North,0,0.0,0.0,68,0.00,,,0.00,WUHU216HW,2013-08-14 10:29:00,
2013-08-14 03:39:00,65.0,54.2,29.85,North,0,0.0,0.0,68,0.00,,,0.00,WUHU216HW,2013-08-14 10:39:00,
2013-08-14 03:44:00,64.8,54.0,29.86,North,0,0.0,0.0,68,0.00,,,0.00,WUHU216HW,2013-08-14 10:44:00,
2013-08-14 03:49:00,64.6,53.8,29.86,North,0,0.0,0.0,68,0.00,,,0.00,WUHU216HW,2013-08-14 10:49:00,
2013-08-14 03:54:00,64.4,53.6,29.86,North,0,0.0,0.0,68,0.00,,,0.00,WUHU216HW,2013-08-14 10:54:00,
2013-08-14 03:59:00,64.4,53.6,29.85,North,0,0.0,0.0,68,0.00,,,0.00,WUHU216HW,2013-08-14 10:59:00,
2013-08-14 04:04:00,64.3,53.5,29.86,North,0,0.0,0.0,68,0.00,,,0.00,WUHU216HW,2013-08-14 11:04:00,
2013-08-14 04:09:00,64.3,53.5,29.85,North,0,0.0,0.0,68,0.00,,,0.00,WUHU216HW,2013-08-14 11:09:00,
2013-08-14 04:14:00,64.1,53.7,29.86,North,0,0.0,0.0,69,0.00,,,0.00,WUHU216HW,2013-08-14 11:14:00,
2013-08-14 04:19:00,64.3,53.5,29.86,North,0,0.0,0.0,68,0.00,,,0.00,WUHU216HW,2013-08-14 11:19:00,
2013-08-14 04:24:00,64.4,53.6,29.86,North,0,0.0,0.0,68,0.00,,,0.00,WUHU216HW,2013-08-14 11:24:00,
2013-08-14 04:29:00,64.4,53.6,29.86,North,0,0.0,0.0,68,0.00,,,0.00,WUHU216HW,2013-08-14 11:29:00,
2013-08-14 04:34:00,64.8,54.0,29.86,North,0,0.0,0.0,68,0.00,,,0.00,WUHU216HW,2013-08-14 11:34:00,
2013-08-14 04:39:00,64.8,54.0,29.86,North,0,0.0,0.0,68,0.00,,,0.00,WUHU216HW,2013-08-14 11:39:00,
2013-08-14 04:44:00,64.8,54.0,29.86,North,0,0.0,0.0,68,0.00,,,0.00,WUHU216HW,2013-08-14 11:44:00,
2013-08-14 04:49:00,64.6,53.8,29.86,North,0,0.0,0.0,68,0.00,,,0.00,WUHU216HW,2013-08-14 11:49:00,
2013-08-14 04:54:00,64.6,53.8,29.86,North,0,0.0,0.0,68,0.00,,,0.00,WUHU216HW,2013-08-14 11:54:00,
2013-08-14 04:59:00,64.6,53.8,29.86,North,0,0.0,0.0,68,0.00,,,0.00,WUHU216HW,2013-08-14 11:59:00,
2013-08-14 05:04:00,64.6,53.8,29.86,North,0,0.0,0.0,68,0.00,,,0.00,WUHU216HW,2013-08-14 12:04:00,
2013-08-14 05:09:00,64.4,53.6,29.86,North,0,0.0,0.0,68,0.00,,,0.00,WUHU216HW,2013-08-14 12:09:00,
2013-08-14 05:14:00,64.4,53.6,29.86,North,0,0.0,0.0,68,0.00,,,0.00,WUHU216HW,2013-08-14 12:14:00,
2013-08-14 05:19:00,64.3,53.5,29.86,North,0,0.0,0.0,68,0.00,,,0.00,WUHU216HW,2013-08-14 12:19:00,
2013-08-14 05:24:00,64.3,53.5,29.86,North,0,0.0,0.0,68,0.00,,,0.00,WUHU216HW,2013-08-14 12:24:00,
2013-08-14 05:29:00,64.1,53.3,29.86,North,0,0.0,0.0,68,0.00,,,0.00,WUHU216HW,2013-08-14 12:29:00,
2013-08-14 05:34:00,63.9,53.6,29.86,North,0,0.0,0.0,69,0.00,,,0.00,WUHU216HW,2013-08-14 12:34:00,
2013-08-14 05:39:00,63.7,53.4,29.86,North,0,0.0,0.0,69,0.00,,,0.00,WUHU216HW,2013-08-14 12:39:00,
2013-08-14 05:44:00,63.7,53.4,29.86,North,0,0.0,0.0,69,0.00,,,0.00,WUHU216HW,2013-08-14 12:44:00,
2013-08-14 05:49:00,63.5,53.2,29.87,SW,225,0.2,0.2,69,0.00,,,0.00,WUHU216HW,2013-08-14 12:49:00,
2013-08-14 05:54:00,63.4,53.5,29.87,North,0,0.0,0.0,70,0.00,,,0.00,WUHU216HW,2013-08-14 12:54:00,
2013-08-14 05:59:00,63.4,53.5,29.87,North,0,0.0,0.0,70,0.00,,,0.00,WUHU216HW,2013-08-14 12:59:00,
2013-08-14 06:04:00,63.4,53.8,29.87,North,0,0.0,0.0,71,0.00,,,0.00,WUHU216HW,2013-08-14 13:04:00,
2013-08-14 06:09:00,63.4,53.8,29.87,North,0,0.0,0.0,71,0.00,,,0.00,WUHU216HW,2013-08-14 13:09:00,
2013-08-14 06:14:00,63.4,53.8,29.87,North,0,0.0,0.0,71,0.00,,,0.00,WUHU216HW,2013-08-14 13:14:00,
2013-08-14 06:19:00,63.4,53.5,29.88,North,0,0.0,0.0,70,0.00,,,0.00,WUHU216HW,2013-08-14 13:19:00,
2013-08-14 06:24:00,63.2,53.3,29.88,North,0,0.0,0.0,70,0.00,,,0.00,WUHU216HW,2013-08-14 13:24:00,
2013-08-14 06:29:00,63.2,53.3,29.88,North,0,0.0,0.0,70,0.00,,,0.00,WUHU216HW,2013-08-14 13:29:00,
2013-08-14 06:34:00,63.4,53.5,29.88,North,0,0.0,0.0,70,0.00,,,0.00,WUHU216HW,2013-08-14 13:34:00,
2013-08-14 06:39:00,63.4,53.8,29.88,North,0,0.0,0.0,71,0.00,,,0.00,WUHU216HW,2013-08-14 13:39:00,
2013-08-14 06:44:00,63.7,53.8,29.89,North,0,0.0,0.0,70,0.00,,,0.00,WUHU216HW,2013-08-14 13:44:00,
2013-08-14 06:49:00,63.9,54.0,29.89,North,0,0.0,0.0,70,0.00,,,0.00,WUHU216HW,2013-08-14 13:49:00,
2013-08-14 06:54:00,64.4,54.5,29.89,North,0,0.0,0.0,70,0.00,,,0.00,WUHU216HW,2013-08-14 13:54:00,
2013-08-14 06:59:00,65.0,55.0,29.90,North,0,0.0,0.0,70,0.00,,,0.00,WUHU216HW,2013-08-14 13:59:00,
2013-08-14 07:04:00,65.5,55.1,29.90,North,0,0.0,0.0,69,0.00,,,0.00,WUHU216HW,2013-08-14 14:04:00,
2013-08-14 07:09:00,65.9,55.5,29.90,North,0,0.0,0.0,69,0.00,,,0.00,WUHU216HW,2013-08-14 14:09:00,
2013-08-14 07:14:00,66.6,55.7,29.90,North,0,0.0,0.0,68,0.00,,,0.00,WUHU216HW,2013-08-14 14:14:00,
2013-08-14 07:19:00,67.3,55.5,29.90,North,0,0.0,0.0,66,0.00,,,0.00,WUHU216HW,2013-08-14 14:19:00,
2013-08-14 07:24:00,67.9,56.1,29.90,North,0,0.0,0.0,66,0.00,,,0.00,WUHU216HW,2013-08-14 14:24:00,
2013-08-14 07:29:00,68.2,56.4,29.90,North,0,0.0,0.0,66,0.00,,,0.00,WUHU216HW,2013-08-14 14:29:00,
2013-08-14 07:34:00,68.8,56.9,29.90,North,0,0.0,0.0,66,0.00,,,0.00,WUHU216HW,2013-08-14 14:34:00,
2013-08-14 07:39:00,69.5,57.2,29.90,North,0,0.0,0.0,65,0.00,,,0.00,WUHU216HW,2013-08-14 14:39:00,
2013-08-14 07:44:00,69.8,56.7,29.90,North,0,0.0,0.0,63,0.00,,,0.00,WUHU216HW,2013-08-14 14:44:00,
2013-08-14 07:49:00,70.4,56.8,29.90,North,0,0.0,0.0,62,0.00,,,0.00,WUHU216HW,2013-08-14 14:49:00,
2013-08-14 07:54:00,70.9,57.2,29.90,North,0,0.0,0.0,62,0.00,,,0.00,WUHU216HW,2013-08-14 14:54:00,
2013-08-14 07:59:00,71.5,57.3,29.90,North,0,0.0,0.0,61,0.00,,,0.00,WUHU216HW,2013-08-14 14:59:00,
2013-08-14 08:04:00,71.6,57.1,29.90,North,0,0.0,0.0,60,0.00,,,0.00,WUHU216HW,2013-08-14 15:04:00,
2013-08-14 08:09:00,72.0,57.4,29.90,SE,135,0.2,0.2,60,0.00,,,0.00,WUHU216HW,2013-08-14 15:09:00,
2013-08-14 08:14:00,72.4,56.7,29.90,ESE,113,0.2,0.2,58,0.00,,,0.00,WUHU216HW,2013-08-14 15:14:00,
2013-08-14 08:19:00,72.7,56.5,29.91,SSE,158,0.2,0.2,57,0.00,,,0.00,WUHU216HW,2013-08-14 15:19:00,
2013-08-14 08:24:00,73.3,56.5,29.91,SE,146,0.2,0.2,56,0.00,,,0.00,WUHU216HW,2013-08-14 15:24:00,
2013-08-14 08:29:00,73.4,56.7,29.91,SSE,158,0.2,0.2,56,0.00,,,0.00,WUHU216HW,2013-08-14 15:29:00,
2013-08-14 08:34:00,73.8,56.5,29.91,North,0,0.0,0.0,55,0.00,,,0.00,WUHU216HW,2013-08-14 15:34:00,
2013-08-14 08:39:00,74.0,56.7,29.91,SE,135,0.2,0.2,55,0.00,,,0.00,WUHU216HW,2013-08-14 15:39:00,
2013-08-14 08:44:00,74.3,56.5,29.91,SE,146,0.2,0.2,54,0.00,,,0.00,WUHU216HW,2013-08-14 15:44:00,
2013-08-14 08:49:00,74.7,56.9,29.90,SSE,149,0.3,0.4,54,0.00,,,0.00,WUHU216HW,2013-08-14 15:49:00,
2013-08-14 08:54:00,75.2,57.4,29.90,North,0,0.0,0.0,54,0.00,,,0.00,WUHU216HW,2013-08-14 15:54:00,
2013-08-14 08:59:00,76.0,57.6,29.90,SSE,153,0.3,0.4,53,0.00,,,0.00,WUHU216HW,2013-08-14 15:59:00,
2013-08-14 09:04:00,76.7,57.2,29.90,SSE,150,0.2,0.2,51,0.00,,,0.00,WUHU216HW,2013-08-14 16:04:00,
2013-08-14 09:09:00,77.2,57.7,29.91,SE,137,0.3,0.4,51,0.00,,,0.00,WUHU216HW,2013-08-14 16:09:00,
2013-08-14 09:14:00,77.9,57.2,29.91,SE,130,0.4,0.4,49,0.00,,,0.00,WUHU216HW,2013-08-14 16:14:00,
2013-08-14 09:19:00,78.5,57.8,29.91,SE,141,0.2,0.4,49,0.00,,,0.00,WUHU216HW,2013-08-14 16:19:00,
2013-08-14 09:24:00,79.2,57.8,29.90,SE,133,0.3,0.4,48,0.00,,,0.00,WUHU216HW,2013-08-14 16:24:00,
2013-08-14 09:29:00,79.9,57.8,29.91,SE,136,2.9,4.0,47,0.00,,,0.00,WUHU216HW,2013-08-14 16:29:00,
2013-08-14 09:34:00,80.5,57.7,29.90,SSE,147,2.4,4.0,46,0.00,,,0.00,WUHU216HW,2013-08-14 16:34:00,
2013-08-14 09:39:00,81.0,57.0,29.90,SE,136,3.3,4.3,44,0.00,,,0.00,WUHU216HW,2013-08-14 16:39:00,
2013-08-14 09:44:00,81.4,56.7,29.91,SSE,165,3.5,4.5,43,0.00,,,0.00,WUHU216HW,2013-08-14 16:44:00,
2013-08-14 09:50:00,82.1,56.7,29.90,SSE,151,2.9,4.5,42,0.00,,,0.00,WUHU216HW,2013-08-14 16:50:00,
2013-08-14 09:55:00,82.6,56.6,29.90,South,178,3.2,4.7,41,0.00,,,0.00,WUHU216HW,2013-08-14 16:55:00,
2013-08-14 10:00:00,83.3,57.3,29.91,South,175,3.1,5.4,41,0.00,,,0.00,WUHU216HW,2013-08-14 17:00:00,
2013-08-14 10:05:00,83.9,57.1,29.90,SSE,156,3.1,4.7,40,0.00,,,0.00,WUHU216HW,2013-08-14 17:05:00,
2013-08-14 10:10:00,84.2,56.6,29.90,South,179,3.7,6.0,39,0.00,,,0.00,WUHU216HW,2013-08-14 17:10:00,
2013-08-14 10:15:00,84.2,55.8,29.90,SSE,159,3.5,4.7,38,0.00,,,0.00,WUHU216HW,2013-08-14 17:15:00,
2013-08-14 10:20:00,84.6,57.0,29.90,SSE,157,2.9,4.7,39,0.00,,,0.00,WUHU216HW,2013-08-14 17:20:00,
2013-08-14 10:25:00,85.0,55.7,29.90,South,187,3.6,5.4,37,0.00,,,0.00,WUHU216HW,2013-08-14 17:25:00,
2013-08-14 10:30:00,85.5,56.2,29.90,South,175,3.4,5.4,37,0.00,,,0.00,WUHU216HW,2013-08-14 17:30:00,
2013-08-14 10:35:00,86.0,55.1,29.91,South,171,3.6,5.4,35,0.00,,,0.00,WUHU216HW,2013-08-14 17:35:00,
2013-08-14 10:40:00,86.0,55.1,29.90,South,177,3.2,5.4,35,0.00,,,0.00,WUHU216HW,2013-08-14 17:40:00,
2013-08-14 10:45:00,86.4,55.4,29.90,South,179,3.5,5.1,35,0.00,,,0.00,WUHU216HW,2013-08-14 17:45:00,
2013-08-14 10:51:00,86.6,57.2,29.90,SSE,164,3.0,5.1,37,0.00,,,0.00,WUHU216HW,2013-08-14 17:51:00,
2013-08-14 10:56:00,87.3,57.8,29.90,South,173,3.1,4.0,37,0.00,,,0.00,WUHU216HW,2013-08-14 17:56:00,
2013-08-14 11:01:00,87.7,58.1,29.90,SSE,165,2.6,4.3,37,0.00,,,0.00,WUHU216HW,2013-08-14 18:01:00,
2013-08-14 11:06:00,88.2,57.7,29.90,South,174,3.1,4.3,36,0.00,,,0.00,WUHU216HW,2013-08-14 18:06:00,
2013-08-14 11:11:00,88.2,57.7,29.90,SSE,159,3.4,4.7,36,0.00,,,0.00,WUHU216HW,2013-08-14 18:11:00,
2013-08-14 11:16:00,88.2,56.1,29.90,SW,217,3.0,4.3,34,0.00,,,0.00,WUHU216HW,2013-08-14 18:16:00,
2013-08-14 11:21:00,88.6,57.3,29.90,South,182,2.7,3.6,35,0.00,,,0.00,WUHU216HW,2013-08-14 18:21:00,
2013-08-14 11:26:00,88.7,58.1,29.90,SSW,201,2.6,5.1,36,0.00,,,0.00,WUHU216HW,2013-08-14 18:26:00,
2013-08-14 11:32:00,88.7,58.1,29.89,South,191,3.0,4.7,36,0.00,,,0.00,WUHU216HW,2013-08-14 18:32:00,
2013-08-14 11:37:00,89.1,58.5,29.90,South,191,2.4,4.0,36,0.00,,,0.00,WUHU216HW,2013-08-14 18:37:00,
2013-08-14 11:42:00,88.9,56.7,29.90,SSW,199,2.4,4.0,34,0.00,,,0.00,WUHU216HW,2013-08-14 18:42:00,
2013-08-14 11:47:00,88.9,58.3,29.90,SW,234,1.8,3.6,36,0.00,,,0.00,WUHU216HW,2013-08-14 18:47:00,
2013-08-14 11:52:00,88.9,58.3,29.90,SW,218,2.4,4.3,36,0.00,,,0.00,WUHU216HW,2013-08-14 18:52:00,
2013-08-14 11:57:00,89.3,58.6,29.90,SSE,167,1.9,3.1,36,0.00,,,0.00,WUHU216HW,2013-08-14 18:57:00,
2013-08-14 12:03:00,90.0,59.2,29.89,South,184,2.7,4.7,36,0.00,,,0.00,WUHU216HW,2013-08-14 19:03:00,
2013-08-14 12:08:00,90.5,59.0,29.89,SSE,159,2.2,4.0,35,0.00,,,0.00,WUHU216HW,2013-08-14 19:08:00,
2013-08-14 12:13:00,90.4,58.8,29.90,SSW,213,2.1,4.0,35,0.00,,,0.00,WUHU216HW,2013-08-14 19:13:00,
2013-08-14 12:18:00,90.4,58.8,29.89,SW,232,2.1,4.0,35,0.00,,,0.00,WUHU216HW,2013-08-14 19:18:00,
2013-08-14 12:23:00,90.4,58.0,29.89,South,181,2.6,4.0,34,0.00,,,0.00,WUHU216HW,2013-08-14 19:23:00,
2013-08-14 12:28:00,91.1,59.4,29.89,SSW,197,2.3,4.5,35,0.00,,,0.00,WUHU216HW,2013-08-14 19:28:00,
2013-08-14 12:34:00,92.0,59.4,29.89,South,178,1.9,4.0,34,0.00,,,0.00,WUHU216HW,2013-08-14 19:34:00,
2013-08-14 12:39:00,92.3,59.8,29.89,SSE,163,2.6,3.4,34,0.00,,,0.00,WUHU216HW,2013-08-14 19:39:00,
2013-08-14 12:44:00,92.3,59.0,29.88,SSE,162,1.9,4.0,33,0.00,,,0.00,WUHU216HW,2013-08-14 19:44:00,
2013-08-14 12:49:00,92.9,59.4,29.88,South,172,2.7,4.0,33,0.00,,,0.00,WUHU216HW,2013-08-14 19:49:00,
2013-08-14 12:54:00,93.4,59.9,29.88,South,182,2.2,4.0,33,0.00,,,0.00,WUHU216HW,2013-08-14 19:54:00,
2013-08-14 12:59:00,93.6,60.0,29.88,WNW,286,1.3,2.9,33,0.00,,,0.00,WUHU216HW,2013-08-14 19:59:00,
2013-08-14 13:04:00,94.0,60.3,29.87,SSW,198,2.3,3.8,33,0.00,,,0.00,WUHU216HW,2013-08-14 20:04:00,
2013-08-14 13:09:00,94.0,59.5,29.87,SSW,193,2.8,3.8,32,0.00,,,0.00,WUHU216HW,2013-08-14 20:09:00,
2013-08-14 13:14:00,94.5,60.0,29.87,South,177,2.3,3.4,32,0.00,,,0.00,WUHU216HW,2013-08-14 20:14:00,
2013-08-14 13:21:00,94.7,60.1,29.87,SW,220,2.1,4.0,32,0.00,,,0.00,WUHU216HW,2013-08-14 20:21:00,
2013-08-14 13:31:00,95.4,59.9,29.87,SSW,204,1.9,2.7,31,0.00,,,0.00,WUHU216HW,2013-08-14 20:31:00,
2013-08-14 13:36:00,95.2,59.9,29.86,SW,228,2.2,3.6,31,0.00,,,0.00,WUHU216HW,2013-08-14 20:36:00,
2013-08-14 13:41:00,95.4,59.9,29.86,South,181,2.6,4.0,31,0.00,,,0.00,WUHU216HW,2013-08-14 20:41:00,
2013-08-14 13:46:00,95.9,59.6,29.86,SW,222,2.3,4.0,30,0.00,,,0.00,WUHU216HW,2013-08-14 20:46:00,
2013-08-14 13:51:00,95.8,59.4,29.86,South,177,2.3,3.8,30,0.00,,,0.00,WUHU216HW,2013-08-14 20:51:00,
2013-08-14 13:56:00,96.1,59.8,29.86,South,188,2.3,4.0,30,0.00,,,0.00,WUHU216HW,2013-08-14 20:56:00,
2013-08-14 14:02:00,96.8,60.3,29.85,SSE,164,2.2,4.5,30,0.00,,,0.00,WUHU216HW,2013-08-14 21:02:00,
2013-08-14 14:07:00,97.4,59.7,29.86,South,187,1.8,2.9,29,0.00,,,0.00,WUHU216HW,2013-08-14 21:07:00,
2013-08-14 14:12:00,97.6,57.6,29.85,SSW,210,2.1,4.7,27,0.00,,,0.00,WUHU216HW,2013-08-14 21:12:00,
2013-08-14 14:17:00,97.9,59.0,29.85,South,187,2.2,4.0,28,0.00,,,0.00,WUHU216HW,2013-08-14 21:17:00,
2013-08-14 14:22:00,97.9,58.0,29.85,West,270,1.4,3.4,27,0.00,,,0.00,WUHU216HW,2013-08-14 21:22:00,
2013-08-14 14:27:00,97.9,56.9,29.85,SW,226,2.4,4.5,26,0.00,,,0.00,WUHU216HW,2013-08-14 21:27:00,
2013-08-14 14:32:00,98.3,58.2,29.84,South,175,2.3,4.9,27,0.00,,,0.00,WUHU216HW,2013-08-14 21:32:00,
2013-08-14 14:37:00,98.5,58.4,29.84,SSE,164,2.7,4.0,27,0.00,,,0.00,WUHU216HW,2013-08-14 21:37:00,
2013-08-14 14:42:00,98.6,58.6,29.84,SE,136,1.7,4.3,27,0.00,,,0.00,WUHU216HW,2013-08-14 21:42:00,
2013-08-14 14:47:00,98.6,58.6,29.84,WSW,245,2.6,5.4,27,0.00,,,0.00,WUHU216HW,2013-08-14 21:47:00,
2013-08-14 14:52:00,98.6,58.6,29.84,South,191,1.8,4.3,27,0.00,,,0.00,WUHU216HW,2013-08-14 21:52:00,
2013-08-14 14:57:00,99.0,57.8,29.84,West,276,2.2,4.7,26,0.00,,,0.00,WUHU216HW,2013-08-14 21:57:00,
2013-08-14 15:02:00,99.0,57.8,29.84,WNW,287,2.5,4.7,26,0.00,,,0.00,WUHU216HW,2013-08-14 22:02:00,
2013-08-14 15:07:00,99.0,56.6,29.83,West,262,1.9,4.7,25,0.00,,,0.00,WUHU216HW,2013-08-14 22:07:00,
2013-08-14 15:12:00,99.5,57.2,29.83,West,277,1.5,3.6,25,0.00,,,0.00,WUHU216HW,2013-08-14 22:12:00,
2013-08-14 15:17:00,99.5,58.2,29.83,SSW,212,1.6,3.4,26,0.00,,,0.00,WUHU216HW,2013-08-14 22:17:00,
2013-08-14 15:22:00,99.5,59.3,29.83,WNW,291,1.9,4.7,27,0.00,,,0.00,WUHU216HW,2013-08-14 22:22:00,
2013-08-14 15:27:00,99.4,59.2,29.83,WNW,297,2.7,4.3,27,0.00,,,0.00,WUHU216HW,2013-08-14 22:27:00,
2013-08-14 15:32:00,99.5,58.2,29.82,SW,230,1.9,3.1,26,0.00,,,0.00,WUHU216HW,2013-08-14 22:32:00,
2013-08-14 15:37:00,99.5,59.3,29.82,SW,218,2.4,3.8,27,0.00,,,0.00,WUHU216HW,2013-08-14 22:37:00,
2013-08-14 15:42:00,99.7,57.2,29.82,SW,224,1.5,3.4,25,0.00,,,0.00,WUHU216HW,2013-08-14 22:42:00,
2013-08-14 15:47:00,99.7,58.4,29.82,WNW,293,3.5,5.6,26,0.00,,,0.00,WUHU216HW,2013-08-14 22:47:00,
2013-08-14 15:52:00,99.7,58.4,29.82,SW,215,1.6,3.1,26,0.00,,,0.00,WUHU216HW,2013-08-14 22:52:00,
2013-08-14 15:57:00,100.3,56.6,29.81,SW,228,2.2,4.0,24,0.00,,,0.00,WUHU216HW,2013-08-14 22:57:00,
2013-08-14 16:02:00,100.4,57.9,29.81,WNW,287,2.1,7.6,25,0.00,,,0.00,WUHU216HW,2013-08-14 23:02:00,
2013-08-14 16:07:00,99.7,56.2,29.81,NNE,18,2.0,5.4,24,0.00,,,0.00,WUHU216HW,2013-08-14 23:07:00,
2013-08-14 16:12:00,99.2,56.8,29.80,NW,304,1.9,4.9,25,0.00,,,0.00,WUHU216HW,2013-08-14 23:12:00,
2013-08-14 16:17:00,100.1,57.6,29.81,NW,324,2.2,3.6,25,0.00,,,0.00,WUHU216HW,2013-08-14 23:17:00,
2013-08-14 16:22:00,100.8,58.1,29.80,West,280,3.3,4.3,25,0.00,,,0.00,WUHU216HW,2013-08-14 23:22:00,
2013-08-14 16:27:00,101.0,58.3,29.80,WSW,239,2.5,4.7,25,0.00,,,0.00,WUHU216HW,2013-08-14 23:27:00,
2013-08-14 16:32:00,101.0,58.3,29.80,SSW,213,2.4,4.7,25,0.00,,,0.00,WUHU216HW,2013-08-14 23:32:00,
2013-08-14 16:37:00,101.2,57.3,29.80,West,264,2.3,4.3,24,0.00,,,0.00,WUHU216HW,2013-08-14 23:37:00,
2013-08-14 16:42:00,100.8,52.5,29.80,WNW,296,4.6,6.3,20,0.00,,,0.00,WUHU216HW,2013-08-14 23:42:00,
2013-08-14 16:47:00,100.1,51.9,29.80,NNW,336,1.5,4.7,20,0.00,,,0.00,WUHU216HW,2013-08-14 23:47:00,
2013-08-14 16:52:00,99.9,51.8,29.79,NW,324,2.6,5.4,20,0.00,,,0.00,WUHU216HW,2013-08-14 23:52:00,
2013-08-14 16:57:00,99.9,51.8,29.79,WNW,295,3.1,5.8,20,0.00,,,0.00,WUHU216HW,2013-08-14 23:57:00,
2013-08-14 17:02:00,100.1,51.9,29.79,NW,306,2.8,4.3,20,0.00,,,0.00,WUHU216HW,2013-08-15 00:02:00,
2013-08-14 17:07:00,100.1,51.9,29.79,NW,318,2.8,5.1,20,0.00,,,0.00,WUHU216HW,2013-08-15 00:07:00,
2013-08-14 17:12:00,100.1,51.9,29.79,NW,318,2.4,5.1,20,0.00,,,0.00,WUHU216HW,2013-08-15 00:12:00,
2013-08-14 17:17:00,100.1,50.1,29.79,NW,315,2.8,4.0,19,0.00,,,0.00,WUHU216HW,2013-08-15 00:17:00,
2013-08-14 17:22:00,99.9,50.0,29.79,NW,316,2.7,4.5,19,0.00,,,0.00,WUHU216HW,2013-08-15 00:22:00,
2013-08-14 17:27:00,99.9,51.8,29.79,NW,315,3.0,4.7,20,0.00,,,0.00,WUHU216HW,2013-08-15 00:27:00,
2013-08-14 17:32:00,99.9,52.9,29.79,NNW,329,2.3,4.7,21,0.00,,,0.00,WUHU216HW,2013-08-15 00:32:00,
2013-08-14 17:37:00,99.7,53.9,29.78,NW,310,3.1,4.3,22,0.00,,,0.00,WUHU216HW,2013-08-15 00:37:00,
2013-08-14 17:42:00,99.7,52.7,29.78,WNW,297,3.9,6.0,21,0.00,,,0.00,WUHU216HW,2013-08-15 00:42:00,
2013-08-14 17:47:00,99.5,53.7,29.78,WNW,298,3.6,5.1,22,0.00,,,0.00,WUHU216HW,2013-08-15 00:47:00,
2013-08-14 17:52:00,99.4,53.6,29.78,NW,307,4.0,4.7,22,0.00,,,0.00,WUHU216HW,2013-08-15 00:52:00,
2013-08-14 17:57:00,99.2,53.5,29.78,WNW,303,3.4,4.5,22,0.00,,,0.00,WUHU216HW,2013-08-15 00:57:00,
2013-08-14 18:02:00,99.2,54.5,29.78,WNW,296,3.6,5.8,23,0.00,,,0.00,WUHU216HW,2013-08-15 01:02:00,
2013-08-14 18:07:00,99.0,54.5,29.77,WNW,295,4.6,6.0,23,0.00,,,0.00,WUHU216HW,2013-08-15 01:07:00,
2013-08-14 18:12:00,98.8,54.3,29.77,WNW,300,3.8,5.6,23,0.00,,,0.00,WUHU216HW,2013-08-15 01:12:00,
2013-08-14 18:17:00,98.6,54.1,29.77,WNW,302,2.9,5.1,23,0.00,,,0.00,WUHU216HW,2013-08-15 01:17:00,
2013-08-14 18:22:00,98.5,54.0,29.77,NNW,329,2.1,4.0,23,0.00,,,0.00,WUHU216HW,2013-08-15 01:22:00,
2013-08-14 18:27:00,98.1,53.6,29.77,NW,314,2.6,4.0,23,0.00,,,0.00,WUHU216HW,2013-08-15 01:27:00,
2013-08-14 18:32:00,97.9,53.6,29.77,NW,310,3.4,4.5,23,0.00,,,0.00,WUHU216HW,2013-08-15 01:32:00,
2013-08-14 18:37:00,97.9,53.6,29.77,NW,306,3.1,4.5,23,0.00,,,0.00,WUHU216HW,2013-08-15 01:37:00,
2013-08-14 18:42:00,97.6,53.2,29.77,NW,306,3.4,4.5,23,0.00,,,0.00,WUHU216HW,2013-08-15 01:42:00,
2013-08-14 18:47:00,97.4,53.1,29.77,NW,308,2.9,4.0,23,0.00,,,0.00,WUHU216HW,2013-08-15 01:47:00,
2013-08-14 18:52:00,97.2,52.9,29.77,NW,311,3.1,4.0,23,0.00,,,0.00,WUHU216HW,2013-08-15 01:52:00,
2013-08-14 18:57:00,96.8,52.7,29.77,NW,315,2.6,3.4,23,0.00,,,0.00,WUHU216HW,2013-08-15 01:57:00,
2013-08-14 19:02:00,96.5,53.4,29.78,NW,307,2.5,3.4,24,0.00,,,0.00,WUHU216HW,2013-08-15 02:02:00,
2013-08-14 19:07:00,96.3,53.3,29.78,NW,308,1.9,2.9,24,0.00,,,0.00,WUHU216HW,2013-08-15 02:07:00,
2013-08-14 19:12:00,95.9,52.9,29.78,NW,316,1.7,2.5,24,0.00,,,0.00,WUHU216HW,2013-08-15 02:12:00,
2013-08-14 19:17:00,95.6,53.7,29.78,NW,310,1.1,1.8,25,0.00,,,0.00,WUHU216HW,2013-08-15 02:17:00,
2013-08-14 19:22:00,95.4,53.6,29.78,NW,315,0.7,1.3,25,0.00,,,0.00,WUHU216HW,2013-08-15 02:22:00,
2013-08-14 19:27:00,95.0,54.4,29.78,NNW,347,0.2,0.4,26,0.00,,,0.00,WUHU216HW,2013-08-15 02:27:00,
2013-08-14 19:32:00,94.5,55.1,29.78,North,0,0.0,0.0,27,0.00,,,0.00,WUHU216HW,2013-08-15 02:32:00,
2013-08-14 19:37:00,93.8,55.5,29.78,North,0,0.0,0.0,28,0.00,,,0.00,WUHU216HW,2013-08-15 02:37:00,
2013-08-14 19:42:00,93.1,57.1,29.78,North,0,0.0,0.0,30,0.00,,,0.00,WUHU216HW,2013-08-15 02:42:00,
2013-08-14 19:47:00,92.5,56.7,29.78,North,0,0.0,0.0,30,0.00,,,0.00,WUHU216HW,2013-08-15 02:47:00,
2013-08-14 19:52:00,91.8,56.9,29.78,North,0,0.0,0.0,31,0.00,,,0.00,WUHU216HW,2013-08-15 02:52:00,
2013-08-14 19:57:00,90.7,56.0,29.79,North,0,0.0,0.0,31,0.00,,,0.00,WUHU216HW,2013-08-15 02:57:00,
2013-08-14 20:02:00,89.8,56.7,29.79,North,0,0.0,0.0,33,0.00,,,0.00,WUHU216HW,2013-08-15 03:02:00,
2013-08-14 20:07:00,88.9,56.7,29.79,North,0,0.0,0.0,34,0.00,,,0.00,WUHU216HW,2013-08-15 03:07:00,
2013-08-14 20:13:00,88.2,56.1,29.79,North,0,0.0,0.0,34,0.00,,,0.00,WUHU216HW,2013-08-15 03:13:00,
2013-08-14 20:18:00,87.3,57.0,29.79,North,0,0.0,0.0,36,0.00,,,0.00,WUHU216HW,2013-08-15 03:18:00,
2013-08-14 20:23:00,86.6,57.2,29.79,North,0,0.0,0.0,37,0.00,,,0.00,WUHU216HW,2013-08-15 03:23:00,
2013-08-14 20:28:00,86.2,56.8,29.79,North,0,0.0,0.0,37,0.00,,,0.00,WUHU216HW,2013-08-15 03:28:00,
2013-08-14 20:33:00,86.0,56.7,29.79,North,0,0.0,0.0,37,0.00,,,0.00,WUHU216HW,2013-08-15 03:33:00,
2013-08-14 20:38:00,85.7,56.3,29.79,North,0,0.0,0.0,37,0.00,,,0.00,WUHU216HW,2013-08-15 03:38:00,
2013-08-14 20:43:00,85.3,56.0,29.79,North,0,0.0,0.0,37,0.00,,,0.00,WUHU216HW,2013-08-15 03:43:00,
2013-08-14 20:48:00,85.1,56.6,29.79,North,0,0.0,0.0,38,0.00,,,0.00,WUHU216HW,2013-08-15 03:48:00,
2013-08-14 20:53:00,84.6,56.2,29.79,NNW,338,0.2,0.2,38,0.00,,,0.00,WUHU216HW,2013-08-15 03:53:00,
2013-08-14 20:58:00,84.2,55.8,29.79,NNW,338,0.2,0.2,38,0.00,,,0.00,WUHU216HW,2013-08-15 03:58:00,
2013-08-14 21:03:00,83.9,56.4,29.80,NNW,338,0.2,0.2,39,0.00,,,0.00,WUHU216HW,2013-08-15 04:03:00,
2013-08-14 21:08:00,83.5,56.0,29.80,NW,324,0.3,0.4,39,0.00,,,0.00,WUHU216HW,2013-08-15 04:08:00,
2013-08-14 21:13:00,83.2,55.6,29.80,NW,323,0.2,0.4,39,0.00,,,0.00,WUHU216HW,2013-08-15 04:13:00,
2013-08-14 21:18:00,83.0,55.5,29.80,North,0,0.0,0.0,39,0.00,,,0.00,WUHU216HW,2013-08-15 04:18:00,
2013-08-14 21:23:00,82.6,55.2,29.81,North,0,0.0,0.0,39,0.00,,,0.00,WUHU216HW,2013-08-15 04:23:00,
2013-08-14 21:28:00,82.4,55.0,29.81,North,0,0.0,0.0,39,0.00,,,0.00,WUHU216HW,2013-08-15 04:28:00,
2013-08-14 21:33:00,81.9,55.4,29.81,NW,315,0.2,0.2,40,0.00,,,0.00,WUHU216HW,2013-08-15 04:33:00,
2013-08-14 21:38:00,81.4,54.8,29.81,North,0,0.0,0.0,40,0.00,,,0.00,WUHU216HW,2013-08-15 04:38:00,
2013-08-14 21:43:00,81.0,55.1,29.82,North,0,0.0,0.0,41,0.00,,,0.00,WUHU216HW,2013-08-15 04:43:00,
2013-08-14 21:48:00,80.6,54.8,29.82,North,0,0.0,0.0,41,0.00,,,0.00,WUHU216HW,2013-08-15 04:48:00,
2013-08-14 21:53:00,80.3,54.5,29.82,North,0,0.0,0.0,41,0.00,,,0.00,WUHU216HW,2013-08-15 04:53:00,
2013-08-14 21:58:00,79.9,54.7,29.82,North,0,0.0,0.0,42,0.00,,,0.00,WUHU216HW,2013-08-15 04:58:00,
2013-08-14 22:03:00,79.2,54.7,29.82,North,0,0.0,0.0,43,0.00,,,0.00,WUHU216HW,2013-08-15 05:03:00,
2013-08-14 22:08:00,78.8,55.0,29.82,ENE,68,0.2,0.2,44,0.00,,,0.00,WUHU216HW,2013-08-15 05:08:00,
2013-08-14 22:13:00,77.9,54.8,29.82,North,0,0.0,0.0,45,0.00,,,0.00,WUHU216HW,2013-08-15 05:13:00,
2013-08-14 22:18:00,77.4,54.9,29.82,North,0,0.0,0.0,46,0.00,,,0.00,WUHU216HW,2013-08-15 05:18:00,
2013-08-14 22:23:00,77.0,54.6,29.82,North,0,0.0,0.0,46,0.00,,,0.00,WUHU216HW,2013-08-15 05:23:00,
2013-08-14 22:28:00,76.5,54.7,29.82,North,0,0.0,0.0,47,0.00,,,0.00,WUHU216HW,2013-08-15 05:28:00,
2013-08-14 22:33:00,76.1,54.5,29.82,North,0,0.0,0.0,47,0.00,,,0.00,WUHU216HW,2013-08-15 05:33:00,
2013-08-14 22:38:00,75.8,54.7,29.82,North,0,0.0,0.0,48,0.00,,,0.00,WUHU216HW,2013-08-15 05:38:00,
2013-08-14 22:43:00,75.6,54.5,29.83,North,0,0.0,0.0,48,0.00,,,0.00,WUHU216HW,2013-08-15 05:43:00,
2013-08-14 22:48:00,75.4,55.0,29.83,North,0,0.0,0.0,49,0.00,,,0.00,WUHU216HW,2013-08-15 05:48:00,
2013-08-14 22:53:00,74.9,54.5,29.83,NNE,23,0.2,0.2,49,0.00,,,0.00,WUHU216HW,2013-08-15 05:53:00,
2013-08-14 22:58:00,74.3,54.5,29.83,North,0,0.0,0.0,50,0.00,,,0.00,WUHU216HW,2013-08-15 05:58:00,
2013-08-14 23:03:00,74.0,54.7,29.83,North,0,0.0,0.0,51,0.00,,,0.00,WUHU216HW,2013-08-15 06:03:00,
2013-08-14 23:08:00,73.8,54.6,29.83,North,0,0.0,0.0,51,0.00,,,0.00,WUHU216HW,2013-08-15 06:08:00,
2013-08-14 23:13:00,73.3,55.0,29.84,North,0,0.0,0.0,53,0.00,,,0.00,WUHU216HW,2013-08-15 06:13:00,
2013-08-14 23:18:00,72.7,54.6,29.83,North,0,0.0,0.0,53,0.00,,,0.00,WUHU216HW,2013-08-15 06:18:00,
2013-08-14 23:23:00,72.4,54.7,29.84,North,0,0.0,0.0,54,0.00,,,0.00,WUHU216HW,2013-08-15 06:23:00,
2013-08-14 23:28:00,72.2,54.6,29.84,North,0,0.0,0.0,54,0.00,,,0.00,WUHU216HW,2013-08-15 06:28:00,
2013-08-14 23:33:00,72.0,54.9,29.84,North,0,0.0,0.0,55,0.00,,,0.00,WUHU216HW,2013-08-15 06:33:00,
2013-08-14 23:38:00,71.8,54.7,29.84,North,0,0.0,0.0,55,0.00,,,0.00,WUHU216HW,2013-08-15 06:38:00,
2013-08-14 23:43:00,71.6,54.5,29.84,North,0,0.0,0.0,55,0.00,,,0.00,WUHU216HW,2013-08-15 06:43:00,
2013-08-14 23:48:00,71.6,55.1,29.84,North,0,0.0,0.0,56,0.00,,,0.00,WUHU216HW,2013-08-15 06:48:00,
2013-08-14 23:53:00,71.5,54.9,29.84,North,0,0.0,0.0,56,0.00,,,0.00,WUHU216HW,2013-08-15 06:53:00,
2013-08-14 23:58:00,71.3,54.7,29.84,North,0,0.0,0.0,56,0.00,,,0.00,WUHU216HW,2013-08-15 06:58:00,